Simultaneous Nadir Overpasses (SNOs) Predictions

Prediction of SNOs between GOES-14 and AQUA Satellite Orbit:

Table of predicted SNOs for the next 14.0 days since TLE Epoch: 3/18/2023
Index Date Time (GOES-14) GOES-14 Lat,Lon AQUA Lat,Lon Distance(km) Time Diff (sec)
1 03/18/2023 08:49:34 0.13,-107.92 -0.25,-106.27 188.20 80
2 03/18/2023 21:10:35 -0.14,-107.96 -0.88,-111.36 387.06 80
3 03/20/2023 20:56:59 -0.14,-107.97 -0.15,-108.04 7.90 80
4 03/22/2023 20:46:03 -0.14,-107.99 0.57,-104.72 371.86 80
5 03/23/2023 09:06:55 0.14,-107.97 0.51,-109.78 206.10 80
6 03/25/2023 08:50:36 0.14,-107.98 -0.16,-106.45 173.80 80
7 03/25/2023 21:11:38 -0.14,-108.01 -0.91,-111.55 402.50 80
8 03/27/2023 20:57:59 -0.15,-108.03 -0.18,-108.22 21.91 80
9 03/29/2023 20:46:58 -0.15,-108.04 0.50,-104.88 359.08 80
10 03/30/2023 09:07:51 0.15,-108.03 0.54,-109.95 217.20 80
